SEJ545 VOHS-VABB

Flight info

Callsign SEJ545
Flight time 1h 7m
Altitude 32000
Route TAMIV5 APUSU W18 OPAKA EMRAK2A
Aircraft B738/M-SDE2E3FGHIRWXY/LB1

Departure

Time 2026-04-25 09:56
Airport Rajiv Gandhi International Airport (VOHS)

Arrival

Time 2026-04-25 11:03
Airport Chhatrapati Shivaji Maharaj International Airport (VABB)
Time Latitude Longitude Altitude Speed Heading
2026-04-25 09:13 17.23417 78.43163 1979 ft 0 kts 360°
2026-04-25 09:43 17.23404 78.43163 1979 ft 3 kts 360°
2026-04-25 09:43 17.23385 78.43163 1981 ft 3 kts 343°
2026-04-25 09:44 17.23371 78.43175 1980 ft 3 kts 277°
2026-04-25 09:44 17.23406 78.43163 1979 ft 3 kts 360°
2026-04-25 09:44 17.23389 78.43166 1981 ft 3 kts 328°
2026-04-25 09:44 17.23374 78.43175 1980 ft 3 kts 323°
2026-04-25 09:45 17.23365 78.43189 1980 ft 0 kts 264°
2026-04-25 09:48 17.23365 78.43187 1980 ft 2 kts 263°
2026-04-25 09:48 17.23342 78.43165 1979 ft 7 kts 199°
2026-04-25 09:48 17.23274 78.43160 1981 ft 10 kts 180°
2026-04-25 09:49 17.23269 78.43160 1980 ft 0 kts 179°
2026-04-25 09:49 17.23268 78.43160 1980 ft 0 kts 179°
2026-04-25 09:50 17.23251 78.43160 1980 ft 7 kts 177°
2026-04-25 09:50 17.23162 78.43162 1979 ft 19 kts 179°
2026-04-25 09:51 17.23085 78.43243 1980 ft 16 kts 84°
2026-04-25 09:51 17.23088 78.43369 1978 ft 21 kts 89°
2026-04-25 09:51 17.23090 78.43520 1978 ft 20 kts 89°
2026-04-25 09:51 17.23091 78.43657 1979 ft 18 kts 90°
2026-04-25 09:52 17.23093 78.43777 1978 ft 16 kts 89°
2026-04-25 09:52 17.23095 78.43893 1979 ft 17 kts 89°
2026-04-25 09:52 17.23098 78.44039 1981 ft 23 kts 89°
2026-04-25 09:52 17.23099 78.44200 1984 ft 17 kts 88°
2026-04-25 09:53 17.23075 78.44296 1980 ft 12 kts 142°
2026-04-25 09:53 17.23058 78.44303 1979 ft 0 kts 170°
2026-04-25 09:54 17.23041 78.44304 1982 ft 7 kts 179°
2026-04-25 09:54 17.22963 78.44304 1980 ft 13 kts 179°
2026-04-25 09:54 17.22899 78.44261 1982 ft 12 kts 260°
2026-04-25 09:55 17.22894 78.44063 1979 ft 54 kts 269°
2026-04-25 09:55 17.22885 78.43440 1983 ft 115 kts 269°
2026-04-25 09:55 17.22873 78.42409 1979 ft 166 kts 271°
2026-04-25 09:55 17.22848 78.41108 2267 ft 186 kts 270°
2026-04-25 09:56 17.22830 78.39709 2772 ft 199 kts 270°
2026-04-25 09:56 17.22829 78.38250 3433 ft 196 kts 270°
2026-04-25 09:56 17.22809 78.36832 4047 ft 201 kts 269°
2026-04-25 09:56 17.22779 78.35279 4315 ft 224 kts 268°
2026-04-25 09:57 17.22750 78.33571 4433 ft 246 kts 269°
2026-04-25 09:57 17.22870 78.31745 4748 ft 257 kts 283°
2026-04-25 09:57 17.23354 78.29949 5229 ft 260 kts 288°
2026-04-25 09:57 17.23904 78.28131 5700 ft 264 kts 288°
2026-04-25 09:58 17.24461 78.26285 6130 ft 267 kts 288°
2026-04-25 09:58 17.25018 78.24429 6685 ft 268 kts 288°
2026-04-25 09:58 17.25591 78.22504 6909 ft 288 kts 287°
2026-04-25 09:58 17.26191 78.20467 7471 ft 292 kts 288°
2026-04-25 09:59 17.26787 78.18438 8263 ft 291 kts 288°
2026-04-25 09:59 17.27381 78.16383 8852 ft 297 kts 288°
2026-04-25 09:59 17.27973 78.14308 9547 ft 299 kts 288°
2026-04-25 09:59 17.28568 78.12207 10204 ft 303 kts 288°
2026-04-25 10:00 17.29193 78.10024 10428 ft 324 kts 288°
2026-04-25 10:00 17.29869 78.07695 10593 ft 344 kts 288°
2026-04-25 10:00 17.30573 78.05266 10720 ft 363 kts 288°
2026-04-25 10:00 17.31341 78.02647 10889 ft 379 kts 288°
2026-04-25 10:01 17.32115 78.00010 11197 ft 388 kts 288°
2026-04-25 10:01 17.32904 77.97293 11730 ft 391 kts 288°
2026-04-25 10:01 17.33697 77.94570 12293 ft 394 kts 287°
2026-04-25 10:01 17.34513 77.91810 12707 ft 400 kts 287°
2026-04-25 10:02 17.35342 77.89018 13239 ft 402 kts 287°
2026-04-25 10:02 17.36170 77.86224 13839 ft 403 kts 287°
2026-04-25 10:02 17.37004 77.83391 14310 ft 406 kts 287°
2026-04-25 10:02 17.37823 77.80570 14813 ft 407 kts 287°
2026-04-25 10:03 17.38646 77.77709 15226 ft 411 kts 287°
2026-04-25 10:03 17.39475 77.74839 15815 ft 409 kts 287°
2026-04-25 10:03 17.40291 77.72033 16402 ft 408 kts 287°
2026-04-25 10:03 17.41122 77.69192 16933 ft 407 kts 287°
2026-04-25 10:04 17.41952 77.66346 17371 ft 410 kts 286°
2026-04-25 10:04 17.42784 77.63484 17818 ft 412 kts 286°
2026-04-25 10:04 17.43618 77.60600 18211 ft 414 kts 286°
2026-04-25 10:04 17.44295 77.57668 18567 ft 416 kts 279°
2026-04-25 10:05 17.44724 77.54662 18902 ft 418 kts 277°
2026-04-25 10:05 17.45079 77.51628 19266 ft 420 kts 276°
2026-04-25 10:05 17.45419 77.48612 19636 ft 421 kts 276°
2026-04-25 10:05 17.45778 77.45554 20010 ft 422 kts 276°
2026-04-25 10:06 17.46157 77.42494 20352 ft 424 kts 276°
2026-04-25 10:06 17.46553 77.39423 20694 ft 426 kts 276°
2026-04-25 10:06 17.46822 77.37382 20909 ft 427 kts 276°
2026-04-25 10:06 17.47232 77.34301 21226 ft 429 kts 276°
2026-04-25 10:07 17.47646 77.31201 21564 ft 430 kts 276°
2026-04-25 10:07 17.48060 77.28091 21877 ft 432 kts 276°
2026-04-25 10:07 17.48474 77.24972 22176 ft 434 kts 275°
2026-04-25 10:07 17.48887 77.21834 22497 ft 435 kts 275°
2026-04-25 10:08 17.49295 77.18681 22749 ft 437 kts 275°
2026-04-25 10:08 17.49700 77.15521 23027 ft 439 kts 275°
2026-04-25 10:08 17.50104 77.12347 23321 ft 441 kts 275°
2026-04-25 10:08 17.50512 77.09152 23577 ft 442 kts 275°
2026-04-25 10:09 17.50912 77.05995 23820 ft 443 kts 275°
2026-04-25 10:09 17.51316 77.02792 24081 ft 443 kts 274°
2026-04-25 10:09 17.51717 76.99593 24332 ft 443 kts 274°
2026-04-25 10:09 17.52113 76.96395 24569 ft 444 kts 274°
2026-04-25 10:10 17.52508 76.93184 24794 ft 445 kts 274°
2026-04-25 10:10 17.52901 76.89956 25022 ft 446 kts 274°
2026-04-25 10:10 17.53290 76.86725 25265 ft 446 kts 274°
2026-04-25 10:10 17.53668 76.83479 25433 ft 449 kts 273°
2026-04-25 10:11 17.54027 76.80268 25609 ft 450 kts 273°
2026-04-25 10:11 17.54417 76.76968 25822 ft 451 kts 274°
2026-04-25 10:11 17.54837 76.73709 26045 ft 452 kts 275°
2026-04-25 10:11 17.55552 76.70540 26200 ft 460 kts 288°
2026-04-25 10:12 17.57146 76.67592 26383 ft 471 kts 304°
2026-04-25 10:12 17.59518 76.65122 26593 ft 481 kts 319°
2026-04-25 10:12 17.65455 76.61784 26994 ft 490 kts 330°
2026-04-25 10:13 17.68565 76.60318 27201 ft 491 kts 330°
2026-04-25 10:13 17.71666 76.58816 27348 ft 492 kts 329°
2026-04-25 10:13 17.74750 76.57243 27477 ft 493 kts 328°
2026-04-25 10:13 17.77815 76.55609 27674 ft 492 kts 327°
2026-04-25 10:14 17.80817 76.53963 27917 ft 491 kts 327°
2026-04-25 10:14 17.83827 76.52294 28208 ft 489 kts 326°
2026-04-25 10:14 17.86831 76.50618 28475 ft 488 kts 326°
2026-04-25 10:14 17.89824 76.48943 28720 ft 487 kts 326°
2026-04-25 10:15 17.92801 76.47251 28986 ft 486 kts 325°
2026-04-25 10:15 17.95777 76.45550 29269 ft 485 kts 326°
2026-04-25 10:15 17.98760 76.43912 29569 ft 485 kts 326°
2026-04-25 10:15 18.01803 76.42371 29908 ft 485 kts 328°
2026-04-25 10:16 18.04889 76.40927 30137 ft 485 kts 329°
2026-04-25 10:16 18.07941 76.39504 30289 ft 486 kts 329°
2026-04-25 10:16 18.11057 76.38006 30445 ft 486 kts 328°
2026-04-25 10:16 18.14110 76.36483 30659 ft 485 kts 327°
2026-04-25 10:17 18.17134 76.34932 30876 ft 484 kts 326°
2026-04-25 10:17 18.20112 76.33376 31057 ft 484 kts 326°
2026-04-25 10:17 18.23164 76.31764 31254 ft 484 kts 326°
2026-04-25 10:17 18.26136 76.30189 31461 ft 484 kts 326°
2026-04-25 10:18 18.29147 76.28592 31655 ft 484 kts 326°
2026-04-25 10:18 18.32157 76.26997 31856 ft 484 kts 326°
2026-04-25 10:18 18.35175 76.25398 31897 ft 488 kts 326°
2026-04-25 10:19 18.41240 76.22185 31898 ft 485 kts 326°
2026-04-25 10:19 18.47262 76.18998 31907 ft 482 kts 326°
2026-04-25 10:20 18.53252 76.15825 31903 ft 481 kts 326°
2026-04-25 10:20 18.59220 76.12662 31906 ft 480 kts 326°
2026-04-25 10:21 18.65175 76.09520 31906 ft 481 kts 326°
2026-04-25 10:21 18.71163 76.06352 31903 ft 481 kts 325°
2026-04-25 10:22 18.77144 76.03167 31901 ft 481 kts 325°
2026-04-25 10:22 18.83127 75.99971 31899 ft 482 kts 325°
2026-04-25 10:23 18.89119 75.96764 31887 ft 483 kts 325°
2026-04-25 10:23 18.95120 75.93551 31904 ft 484 kts 325°
2026-04-25 10:24 19.01114 75.90354 31868 ft 485 kts 325°
2026-04-25 10:24 19.07133 75.87120 31873 ft 484 kts 325°
2026-04-25 10:25 19.13144 75.83871 31864 ft 484 kts 325°
2026-04-25 10:25 19.19111 75.80631 31866 ft 484 kts 324°
2026-04-25 10:26 19.25088 75.77367 31875 ft 484 kts 324°
2026-04-25 10:26 19.31062 75.74070 31860 ft 482 kts 323°
2026-04-25 10:26 19.33729 75.72037 31840 ft 461 kts 304°
2026-04-25 10:27 19.35455 75.69338 31861 ft 438 kts 285°
2026-04-25 10:27 19.36116 75.66278 31861 ft 419 kts 265°
2026-04-25 10:27 19.35690 75.63279 31885 ft 410 kts 252°
2026-04-25 10:27 19.35281 75.60271 31850 ft 417 kts 266°
2026-04-25 10:28 19.35496 75.57192 31849 ft 421 kts 271°
2026-04-25 10:28 19.36206 75.51056 31851 ft 422 kts 271°
2026-04-25 10:29 19.36721 75.44931 31858 ft 413 kts 269°
2026-04-25 10:29 19.37030 75.38813 31867 ft 419 kts 267°
2026-04-25 10:30 19.37268 75.32605 31870 ft 424 kts 267°
2026-04-25 10:30 19.37503 75.26334 31871 ft 427 kts 267°
2026-04-25 10:31 19.37748 75.20029 31870 ft 428 kts 267°
2026-04-25 10:31 19.37996 75.13714 31871 ft 429 kts 267°
2026-04-25 10:32 19.38243 75.07454 31867 ft 428 kts 267°
2026-04-25 10:32 19.38492 75.01139 31873 ft 429 kts 267°
2026-04-25 10:33 19.38736 74.94814 31684 ft 433 kts 267°
2026-04-25 10:33 19.38853 74.91625 31379 ft 432 kts 267°
2026-04-25 10:33 19.38965 74.88443 30919 ft 434 kts 268°
2026-04-25 10:33 19.39072 74.85240 30501 ft 435 kts 268°
2026-04-25 10:34 19.39174 74.82031 30045 ft 438 kts 268°
2026-04-25 10:34 19.39272 74.78797 29518 ft 441 kts 268°
2026-04-25 10:34 19.39368 74.75538 29011 ft 442 kts 268°
2026-04-25 10:34 19.39462 74.72311 28525 ft 444 kts 268°
2026-04-25 10:35 19.39557 74.69030 28034 ft 447 kts 269°
2026-04-25 10:35 19.39653 74.65731 27548 ft 450 kts 269°
2026-04-25 10:35 19.39751 74.62383 27064 ft 455 kts 269°
2026-04-25 10:35 19.39848 74.59011 26542 ft 460 kts 269°
2026-04-25 10:36 19.39944 74.55604 26035 ft 465 kts 269°
2026-04-25 10:36 19.40041 74.52164 25515 ft 470 kts 270°
2026-04-25 10:36 19.40138 74.48690 25092 ft 470 kts 270°
2026-04-25 10:36 19.40238 74.45229 24994 ft 470 kts 270°
2026-04-25 10:37 19.40343 74.41783 24831 ft 463 kts 270°
2026-04-25 10:37 19.40450 74.38452 24343 ft 455 kts 270°
2026-04-25 10:37 19.40556 74.35069 23641 ft 453 kts 271°
2026-04-25 10:37 19.40651 74.31750 22497 ft 461 kts 271°
2026-04-25 10:38 19.40746 74.28346 21705 ft 459 kts 271°
2026-04-25 10:38 19.40848 74.24989 21272 ft 450 kts 271°
2026-04-25 10:38 19.40954 74.21729 20867 ft 440 kts 271°
2026-04-25 10:38 19.41058 74.18501 20433 ft 435 kts 271°
2026-04-25 10:39 19.41157 74.15297 20030 ft 436 kts 271°
2026-04-25 10:39 19.41258 74.12072 19945 ft 438 kts 271°
2026-04-25 10:39 19.41362 74.08849 19895 ft 435 kts 271°
2026-04-25 10:39 19.41465 74.05681 19891 ft 434 kts 271°
2026-04-25 10:40 19.41568 74.02481 19890 ft 434 kts 271°
2026-04-25 10:40 19.41668 73.99327 19654 ft 423 kts 272°
2026-04-25 10:40 19.41755 73.96239 19066 ft 414 kts 272°
2026-04-25 10:40 19.41812 73.94188 18504 ft 412 kts 272°
2026-04-25 10:41 19.41931 73.90139 16874 ft 419 kts 272°
2026-04-25 10:41 19.41777 73.87067 15845 ft 422 kts 257°
2026-04-25 10:41 19.40686 73.84187 15349 ft 419 kts 242°
2026-04-25 10:41 19.39262 73.81465 15221 ft 421 kts 240°
2026-04-25 10:42 19.37840 73.78786 15067 ft 418 kts 240°
2026-04-25 10:42 19.36417 73.76098 14891 ft 416 kts 241°
2026-04-25 10:42 19.35026 73.73450 14535 ft 409 kts 241°
2026-04-25 10:42 19.33647 73.70826 14050 ft 406 kts 241°
2026-04-25 10:43 19.32276 73.68229 13550 ft 403 kts 241°
2026-04-25 10:43 19.30908 73.65644 12974 ft 400 kts 241°
2026-04-25 10:43 19.29567 73.63093 12581 ft 393 kts 240°
2026-04-25 10:43 19.28282 73.60593 12474 ft 379 kts 240°
2026-04-25 10:44 19.27048 73.58180 12343 ft 367 kts 240°
2026-04-25 10:44 19.25870 73.55868 12243 ft 355 kts 241°
2026-04-25 10:44 19.24703 73.53579 12149 ft 344 kts 241°
2026-04-25 10:44 19.23610 73.51401 12048 ft 334 kts 243°
2026-04-25 10:45 19.22625 73.49203 11915 ft 325 kts 244°
2026-04-25 10:45 19.21701 73.47059 11818 ft 315 kts 244°
2026-04-25 10:45 19.20815 73.44984 11808 ft 303 kts 245°
2026-04-25 10:45 19.19959 73.42980 11767 ft 292 kts 245°
2026-04-25 10:46 19.19138 73.41052 11631 ft 285 kts 245°
2026-04-25 10:46 19.18331 73.39152 11389 ft 283 kts 245°
2026-04-25 10:46 19.17521 73.37235 11094 ft 284 kts 245°
2026-04-25 10:46 19.16733 73.35365 10914 ft 278 kts 245°
2026-04-25 10:47 19.15952 73.33509 10677 ft 277 kts 245°
2026-04-25 10:47 19.15169 73.31647 10432 ft 276 kts 245°
2026-04-25 10:47 19.14390 73.29800 10215 ft 274 kts 244°
2026-04-25 10:47 19.13613 73.27947 9909 ft 277 kts 245°
2026-04-25 10:48 19.12841 73.26098 9741 ft 273 kts 245°
2026-04-25 10:48 19.12070 73.24246 9449 ft 276 kts 245°
2026-04-25 10:48 19.11302 73.22394 9231 ft 274 kts 245°
2026-04-25 10:48 19.10536 73.20553 8933 ft 275 kts 244°
2026-04-25 10:49 19.09769 73.18688 8574 ft 278 kts 245°
2026-04-25 10:49 19.09313 73.17419 8334 ft 280 kts 256°
2026-04-25 10:49 19.09208 73.14676 7863 ft 285 kts 271°
2026-04-25 10:49 19.09218 73.12552 7395 ft 292 kts 270°
2026-04-25 10:50 19.09197 73.10383 7080 ft 292 kts 269°
2026-04-25 10:50 19.09167 73.08283 6825 ft 284 kts 269°
2026-04-25 10:50 19.09138 73.06165 6280 ft 289 kts 269°
2026-04-25 10:50 19.09108 73.04033 5734 ft 292 kts 269°
2026-04-25 10:51 19.09072 73.01881 5169 ft 293 kts 269°
2026-04-25 10:51 19.09038 72.99754 4548 ft 285 kts 269°
2026-04-25 10:51 19.09005 72.97678 3916 ft 278 kts 270°
2026-04-25 10:51 19.08966 72.95661 3334 ft 270 kts 269°
2026-04-25 10:52 19.08940 72.93758 3052 ft 252 kts 270°
2026-04-25 10:52 19.08913 72.91985 2929 ft 231 kts 272°
2026-04-25 10:52 19.08884 72.90362 2866 ft 209 kts 273°
2026-04-25 10:52 19.08875 72.89360 2902 ft 203 kts 273°
2026-04-25 10:53 19.08897 72.87326 2867 ft 225 kts 274°
2026-04-25 10:53 19.08925 72.86223 2933 ft 227 kts 274°
2026-04-25 10:53 19.08963 72.84576 3124 ft 222 kts 274°
2026-04-25 10:53 19.09242 72.83010 3261 ft 215 kts 302°
2026-04-25 10:54 19.10298 72.81880 3500 ft 225 kts 335°
2026-04-25 10:54 19.11858 72.81528 3717 ft 240 kts
2026-04-25 10:54 19.13444 72.82105 3922 ft 246 kts 36°
2026-04-25 10:54 19.14536 72.83432 3980 ft 237 kts 66°
2026-04-25 10:55 19.14844 72.85064 4004 ft 225 kts 87°
2026-04-25 10:55 19.14854 72.86687 3878 ft 221 kts 89°
2026-04-25 10:55 19.14830 72.88315 3661 ft 220 kts 90°
2026-04-25 10:55 19.14788 72.89911 3438 ft 213 kts 88°
2026-04-25 10:56 19.14746 72.91457 3185 ft 208 kts 90°
2026-04-25 10:56 19.14697 72.92963 2974 ft 207 kts 89°
2026-04-25 10:56 19.14642 72.94492 2733 ft 206 kts 89°
2026-04-25 10:56 19.14575 72.96026 2616 ft 211 kts 90°
2026-04-25 10:57 19.14503 72.97568 2617 ft 212 kts 91°
2026-04-25 10:57 19.14443 72.99121 2599 ft 212 kts 91°
2026-04-25 10:57 19.14368 73.00680 2615 ft 212 kts 89°
2026-04-25 10:57 19.14288 73.02253 2605 ft 213 kts 89°
2026-04-25 10:58 19.14085 73.03802 2603 ft 216 kts 109°
2026-04-25 10:58 19.13186 73.05024 2568 ft 216 kts 147°
2026-04-25 10:58 19.11777 73.05469 2607 ft 211 kts 184°
2026-04-25 10:58 19.10449 73.04993 2573 ft 201 kts 223°
2026-04-25 10:59 19.09569 73.03880 2606 ft 200 kts 240°
2026-04-25 10:59 19.08948 73.02583 2562 ft 198 kts 263°
2026-04-25 10:59 19.08981 73.01175 2387 ft 190 kts 279°
2026-04-25 10:59 19.09007 72.99767 2139 ft 191 kts 272°
2026-04-25 11:00 19.08991 72.98391 1911 ft 181 kts 272°
2026-04-25 11:00 19.08959 72.97094 1685 ft 170 kts 273°
2026-04-25 11:00 19.08943 72.95856 1482 ft 167 kts 274°
2026-04-25 11:00 19.08930 72.94643 1271 ft 162 kts 273°
2026-04-25 11:01 19.08921 72.93444 1070 ft 166 kts 274°
2026-04-25 11:01 19.08902 72.92232 872 ft 164 kts 274°
2026-04-25 11:01 19.08914 72.91065 700 ft 154 kts 272°
2026-04-25 11:01 19.08911 72.89979 515 ft 146 kts 271°
2026-04-25 11:02 19.08887 72.88873 301 ft 151 kts 273°
2026-04-25 11:02 19.08885 72.87785 132 ft 147 kts 271°
2026-04-25 11:02 19.08871 72.86734 51 ft 134 kts 269°
2026-04-25 11:02 19.08858 72.85871 47 ft 100 kts 269°
2026-04-25 11:03 19.08850 72.85328 50 ft 41 kts 269°
2026-04-25 11:03 19.08880 72.85137 47 ft 20 kts 323°
2026-04-25 11:03 19.08962 72.85124 48 ft 0 kts 360°
2026-04-25 11:04 19.08963 72.85124 48 ft 1 kts
2026-04-25 11:04 19.08983 72.85124 47 ft 4 kts 360°
2026-04-25 11:04 19.09004 72.85128 48 ft 5 kts 26°
2026-04-25 11:05 19.09021 72.85206 48 ft 14 kts 89°
2026-04-25 11:05 19.09022 72.85329 48 ft 17 kts 90°
2026-04-25 11:05 19.09057 72.85401 48 ft 8 kts 11°
2026-04-25 11:05 19.09108 72.85409 46 ft 6 kts 356°
2026-04-25 11:06 19.09143 72.85410 48 ft 4 kts
2026-04-25 11:06 19.09156 72.85409 48 ft 0 kts 359°